Regional Weather Roundup
Issued by NWS

Home | Current Version | Previous Version | Text Only | Print | Product List | Glossary Off
Versions: 1 2 3 4 5 6 7 8 9 10 11 12 13 14 15 16 17 18 19 20 21 22 23 24 25 26 27 28 29 30 31 32 33 34 35 36 37 38 39 40 41 42 43 44 45 46 47 48 49 50

545
ASUS43 KLMK 190510
RWRKY
KENTUCKY REGIONAL WEATHER ROUNDUP
NATIONAL WEATHER SERVICE LOUISVILLE KY
100 AM EDT SAT AUG 19 2017

NOTE "FAIR" INDICATES FEW OR NO CLOUDS BELOW 12,000 FEET
WITH NO SIGNIFICANT WEATHER AND/OR OBSTRUCTIONS TO VISIBILITY.

KYZ001>023-026-027-061>063-070>075-190600-
WESTERN AND SOUTH CENTRAL KENTUCKY

CITY           SKY/WX    TMP DP  RH WIND       PRES   REMARKS
PADUCAH        FAIR      75  67  76 SW5       29.97R
HENDERSON      NOT AVBL
OWENSBORO      FAIR      71  67  87 CALM      29.96S
HOPKINSVILLE   MOCLDY    72  67  84 SW5       29.98S
BOWLING GREEN  FAIR      73  67  81 SW3       29.97S
GLASGOW        FAIR      66  66 100 CALM      29.98S
$$

KYZ024-025-028>034-038-045-046-053-190600-
NORTH CENTRAL KENTUCKY

CITY           SKY/WX    TMP DP  RH WIND       PRES   REMARKS
LOUISVILLE/SDF FAIR      75  65  70 W3        29.95R
LOUISVILLE/LOU FAIR      72  68  87 W5        29.96R
FORT KNOX      FAIR      66  65  96 CALM      29.96R
$$

KYZ035>037-039>044-047>052-055>060-089>105-190600-
NORTHEAST KENTUCKY

CITY           SKY/WX    TMP DP  RH WIND       PRES   REMARKS
LEXINGTON      FAIR      70  63  78 CALM      29.98R
COVINGTON      FAIR      71  66  84 W7        29.96R
FRANKFORT      FAIR      70  64  81 SW3       29.96R
$$

KYZ054-064>069-076>088-106>120-190600-
SOUTHEAST KENTUCKY

CITY           SKY/WX    TMP DP  RH WIND       PRES   REMARKS
JACKSON        FAIR      69  64  84 CALM      30.01R
LONDON         FAIR      66  64  93 CALM      30.01S
SOMERSET       FAIR      64  64 100 CALM      30.02S
MIDDLESBORO    FAIR      65  65 100 CALM      30.03R
MONTICELLO     FAIR      64  63  96 W3        30.02S FOG
$$





USA.gov is the U.S. government's official web portal to all federal, state and local government web resources and services.